Regional Weather Roundup
Issued by NWS

Home | Current Version | Previous Version | Graphics & Text | Print | Product List | Glossary On
Versions: 1 2 3 4 5 6 7 8 9 10 11 12 13 14 15 16 17 18 19 20 21 22 23 24 25 26 27 28 29 30 31 32 33 34 35 36 37 38 39 40 41 42 43 44 45 46 47 48 49 50
000
ASUS45 KSLC 142110
RWRUT

UTAH REGIONAL WEATHER ROUNDUP
NATIONAL WEATHER SERVICE SALT LAKE CITY UT
200 PM MST SUN FEB 14 2016

UTZ001>011-023>025-142200-

NORTHERN UTAH

CITY           SKY/WX    TMP DP  RH WIND       PRES   REMARKS
BRIGHAM CITY   CLOUDY    33  31  94 CALM      30.27R
HILL AFB       CLOUDY    36  36 100 E2        30.24R
LOGAN          LGT SNOW  32  31  96 N7        30.24R FOG     WCI  26
OGDEN          LGT RAIN  33  33 100 NW7       30.24S VSB 3/4 WCI  27
PROVO AIRPORT  CLOUDY    32  27  80 CALM      30.26F FOG
SALT LAKE CITY CLOUDY    40  35  83 S7        30.24S HAZE
VERNAL         CLOUDY    38  21  50 CALM      30.10S
WENDOVER       CLOUDY    41  32  70 E6        30.25S
HEBER CITY     LGT RAIN  34  28  80 CALM      30.19F
WEST JORDAN    CLOUDY    37  34  87 SE7       30.24S WCI  32

$$

UTZ012>022-026-027-142200-

SOUTHERN/CENTRAL UTAH

CITY           SKY/WX    TMP DP  RH WIND       PRES   REMARKS
BLANDING       PTSUNNY   43  30  59 S5        30.18S
BRYCE CANYON   SUNNY     43  18  36 NW18      30.21S
CEDAR CITY     MOSUNNY   49  23  36 N6        30.21F
DELTA          CLOUDY    32  26  78 S6        30.27R WCI  26
HANKSVILLE     MOSUNNY   48  32  53 CALM      30.13F
MILFORD        MOSUNNY   33  23  66 N6        30.24F WCI  28
MOAB/CYNLANDS  CLOUDY    45  34  65 CALM      30.10F
PRICE          PTSUNNY   48  27  44 W14G21    30.10F
ST GEORGE      MOCLDY    61  25  25 NW3       30.15F
KANAB          MOSUNNY   63  19  19 W3        30.16F

$$

REGIONAL REPORTS     COLORADO/ARIZONA

CITY           SKY/WX    TMP DP  RH WIND       PRES   REMARKS
CRAIG, CO      LGT SNOW  31  27  85 E7        30.10F WCI  24
GRAND JUNCTION CLOUDY    40  32  73 CALM      30.10F
RIFLE          CLOUDY    35  24  64 E7        30.10F WCI  29
MONTROSE       CLOUDY    42  25  50 E5        30.11F
CORTEZ         CLOUDY    49  24  37 SE3       30.11F
PAGE, AZ       MOSUNNY   54  28  36 N6        30.10F
GRAND CANYON   SUNNY     58   5  12 VRB7      30.18F
KINGMAN        MOSUNNY   70  14  11 N22       30.12F
FLAGSTAFF      MOSUNNY   58   5  12 NW10G20   30.17S

$$

REGIONAL REPORTS    NEVADA/IDAHO/WYOMING

CITY           SKY/WX    TMP DP  RH WIND       PRES   REMARKS
LAS VEGAS, NV  CLOUDY    69  16  13 S7        30.08F
ELY            MOSUNNY   47  28  47 N3        30.27F
ELKO           CLOUDY    46  32  58 SW10      30.29F
POCATELLO, ID  CLOUDY    37  34  89 SW21      30.19F WCI  26
BURLEY         CLOUDY    42  37  82 W20G26    30.20F
EVANSTON, WY   CLOUDY    35  29  78 SW17      30.15S WCI  25
ROCK SPRINGS   CLOUDY    36  27  69 W32G47    30.04F WCI  23
KEMMERER       LGT SNOW  34  30  86 W25G31    30.12S WCI  21

$$



USA.gov is the U.S. government's official web portal to all federal, state and local government web resources and services.